Dewpoint
20 19 17 17 17 16 17 17 18 19 19 20 21 23 25 25 28 31 32 35 37 41 42 49 48 49 47 47 46 46 45 43 42 42 40 39 39 41 42 39 38 36 37 37 35 35 34 34 33 32 31 29 27 26 25 26 27 27 28 27 26 25 25 25 26 24 22 21 22 22 21 22 26 19 19 20 21 25 27 27 26 26 26 27 26
18 17 17 16 15 16 15 14 18 15 17 18 19 21 21 22 25 26 28 29 31 34 40 41 44 48 47 47 46 45 45 44 42 41 41 40 40 39 39 38 36 38 38 37 34 34 33 32 32 32 30 28 27 27 25 28 28 27 28 26 27 24 23 25 26 23 22 19 19 19 20 21 23 21 19 16 20 23 25 25 25 24 25 24 24
14 15 16 15 16 16 15 13 12 13 14 14 16 18 19 20 21 24 25 26 27 27 33 38 42 44 49 47 47 45 45 45 44 44 42 41 41 41 40 39 39 37 36 36 34 33 32 31 30 31 29 28 27 27 25 25 27 26 27 25 26 25 24 27 24 21 19 20 20 18 16 15 20 19 20 19 17 20 24 24 25 22 22 23 23
13 13 14 14 14 14 14 14 13 14 13 13 13 14 16 18 17 21 22 23 24 27 30 32 37 40 46 47 48 45 43 44 46 44 40 40 40 39 39 41 41 40 37 36 34 32 30 30 30 30 28 28 27 26 24 24 26 26 26 26 26 24 23 25 25 22 20 19 16 15 16 14 14 16 17 19 19 18 21 23 24 22 21 20 20
14 14 14 15 14 14 14 16 15 14 14 13 13 13 14 15 15 16 19 19 21 24 26 29 33 34 39 41 44 44 43 44 43 42 41 40 39 38 37 39 39 40 40 39 35 31 30 29 30 30 28 27 27 26 24 24 25 26 26 26 25 24 23 24 25 23 21 19 17 13 12 13 15 14 16 15 18 17 19 22 25 21 19 20 20
16 15 16 16 16 16 16 16 15 15 15 14 14 15 15 16 15 14 15 16 17 18 24 27 30 32 34 34 35 37 38 38 39 42 42 41 39 37 37 38 37 36 36 38 40 40 39 34 30 30 28 27 27 26 24 24 25 25 25 25 25 24 23 23 24 25 22 23 19 16 20 20 15 13 12 12 18 18 20 20 22 21 20 20 19
17 16 16 16 16 17 16 16 16 16 16 15 15 15 16 17 16 15 14 15 14 15 16 24 27 30 32 32 35 34 34 36 39 41 44 42 41 41 39 38 36 37 36 37 36 38 40 39 34 30 29 27 26 25 24 24 25 26 26 25 24 25 23 24 24 23 23 23 24 22 25 19 15 14 13 13 12 12 17 17 18 19 18 18 19
17 16 15 15 16 16 16 16 16 17 17 17 15 15 15 16 17 16 15 15 14 14 14 16 21 25 27 28 30 32 32 33 36 38 40 43 42 42 40 39 37 37 37 37 36 37 35 39 38 31 29 27 26 26 24 24 26 27 26 25 24 24 23 24 24 23 22 21 22 21 23 24 19 14 11 14 14 11 13 15 16 18 17 18 18
15 16 15 14 14 15 15 14 14 16 17 17 15 14 14 15 15 16 15 14 14 13 14 13 16 17 21 22 25 29 30 31 32 34 36 38 39 41 38 39 37 36 36 38 39 38 39 38 37 35 34 29 29 27 25 25 25 25 25 25 23 23 22 22 24 24 22 21 20 21 21 22 20 17 13 10 12 10 10 13 13 16 15 14 16
16 16 16 15 15 15 15 15 14 14 15 17 16 14 14 14 14 14 15 14 14 13 12 12 12 13 13 15 19 20 24 29 31 32 33 34 35 36 38 36 36 37 37 36 36 38 38 38 37 36 36 35 33 31 28 27 26 26 26 24 24 22 22 22 23 23 22 21 20 20 20 21 20 18 14 9 8 8 9 12 12 13 13 13 14
15 15 17 16 16 16 16 15 15 14 14 15 15 13 12 12 12 11 14 14 13 13 12 12 11 11 11 12 14 15 18 23 24 28 31 31 33 33 35 36 36 34 35 36 36 37 36 37 37 37 37 36 36 35 33 30 27 25 25 25 24 22 22 21 23 22 22 22 20 20 19 20 19 20 16 11 8 6 9 10 11 13 13 11 12
16 16 17 18 18 17 16 16 16 15 14 14 14 15 13 11 10 8 10 14 13 13 11 10 11 10 10 11 12 12 13 17 19 23 28 29 30 32 33 34 35 36 34 34 34 35 36 37 37 36 36 36 36 36 36 35 35 28 25 24 23 22 21 22 21 21 21 21 20 20 19 19 20 18 16 13 10 8 9 9 9 11 9 10 10
15 17 18 18 17 17 16 16 16 15 14 13 14 15 14 12 10 7 8 10 12 12 10 10 9 9 9 10 10 13 12 14 15 18 22 27 29 29 30 31 33 34 35 33 33 33 34 35 36 36 36 37 37 36 36 34 34 35 32 25 24 23 22 21 22 21 21 21 21 19 19 19 18 18 18 14 13 12 12 9 8 10 8 8 9
13 15 16 17 18 16 15 15 14 14 13 12 13 16 14 11 10 8 7 9 10 10 10 9 8 8 8 9 9 9 9 12 12 14 15 17 21 24 27 30 31 32 34 35 35 33 33 34 35 36 36 36 36 36 36 35 35 35 34 34 30 27 23 21 21 22 21 21 20 20 19 19 18 18 17 17 14 15 14 13 8 8 6 7 7
13 12 14 15 16 15 15 14 14 13 13 13 12 12 15 11 11 7 6 8 9 9 8 8 8 7 7 8 9 8 9 9 9 14 14 15 16 17 18 26 30 32 33 34 35 35 34 34 34 35 36 36 36 36 36 36 35 35 35 35 34 27 23 22 22 21 23 21 20 20 19 18 18 17 17 17 16 15 14 14 11 10 5 5 6
12 11 12 12 13 15 15 13 12 12 12 13 12 13 14 12 10 7 7 8 9 10 8 7 6 6 8 7 7 8 10 8 9 11 13 15 16 17 17 18 22 30 33 34 34 35 35 33 32 34 35 35 35 35 35 35 35 35 35 35 35 32 30 26 23 22 22 21 21 20 20 18 17 17 17 16 16 16 16 16 10 12 9 4 3
11 11 10 9 10 13 14 12 11 10 10 11 11 11 11 10 9 7 6 7 9 9 7 6 5 4 7 7 6 6 6 7 8 9 10 12 14 15 17 17 18 18 22 29 33 34 35 35 34 32 33 34 35 35 35 35 35 35 34 34 34 34 30 27 26 22 20 21 21 21 21 20 18 17 17 16 16 17 16 16 12 10 12 8 4
10 9 9 9 10 11 13 12 10 8 9 9 10 10 11 10 7 6 5 6 7 8 8 6 4 5 7 5 4 5 7 7 7 8 10 10 11 14 16 17 18 18 20 22 22 27 34 34 35 34 32 32 33 34 35 35 35 35 35 35 35 34 34 34 31 24 20 20 21 21 21 21 20 18 17 17 16 17 17 18 15 11 11 10 8
6 6 9 9 10 9 11 10 9 8 9 9 12 11 10 8 8 6 6 6 6 8 7 6 4 9 9 6 4 5 7 7 8 10 9 10 11 13 14 17 18 19 21 20 21 21 22 27 34 34 34 33 32 32 34 34 35 35 35 35 35 35 35 34 34 33 32 23 21 21 21 21 21 20 19 18 18 20 18 17 18 12 15 15 12
4 3 2 3 5 8 10 10 9 10 9 10 10 10 7 8 6 5 6 3 4 5 5 4 5 6 6 4 4 6 7 6 7 6 8 9 11 12 13 14 17 19 19 21 21 21 22 22 23 29 33 33 33 33 33 34 34 34 34 34 34 34 34 34 34 34 33 32 28 23 22 21 21 21 23 22 20 20 20 18 19 17 14 14 14
3 2 0 -0 -1 3 8 9 10 10 9 9 9 6 6 6 5 4 3 2 2 3 5 6 5 4 5 4 4 7 5 6 7 7 7 9 9 11 10 13 16 17 18 20 21 22 22 22 22 22 25 32 33 33 33 33 34 33 34 33 33 33 33 34 34 34 34 32 32 29 27 25 22 23 22 23 21 21 21 19 20 17 15 16 17
2 1 -1 -0 -0 0 4 7 9 7 6 3 5 4 2 2 4 3 2 2 2 3 3 4 4 5 4 4 5 5 4 7 7 7 7 6 6 7 9 13 14 16 18 19 20 21 22 22 21 21 22 23 30 32 33 33 33 33 33 33 33 33 32 32 32 31 32 32 32 30 30 28 25 26 25 24 23 20 22 19 19 19 15 17 15
2 1 0 -0 0 1 2 4 3 -0 1 2 2 1 -1 0 1 2 2 2 1 1 2 4 4 4 4 4 5 5 5 6 5 5 4 5 5 8 11 14 15 17 18 18 19 21 21 21 21 21 21 21 23 28 31 32 33 33 32 33 33 33 33 32 32 31 31 31 31 31 30 30 27 27 27 26 25 23 23 22 21 20 19 16 15
-1 -1 -1 -1 -2 -1 -1 1 1 0 0 0 0 -1 -1 0 1 1 1 1 1 1 2 2 3 3 3 4 4 5 7 7 5 4 4 6 8 10 13 14 15 16 17 17 18 18 19 19 19 19 20 20 21 23 27 30 32 32 32 32 32 32 32 32 32 32 32 32 31 31 31 30 30 29 28 27 26 25 23 22 22 21 20 17 15
0 0 -2 -3 -3 -2 -1 2 4 3 2 2 2 1 0 1 1 1 2 2 1 2 1 1 2 3 4 5 6 7 7 6 5 5 6 8 9 11 13 14 15 16 16 15 14 14 15 17 17 18 19 19 20 21 23 26 29 31 31 32 32 32 32 32 32 32 32 32 32 32 32 31 31 30 29 27 27 26 25 23 22 21 20 20 18
0 0 0 0 0 -0 1 3 5 5 5 4 3 3 2 1 1 2 2 2 2 2 1 3 3 5 5 8 9 8 7 6 6 8 8 10 11 11 13 13 13 14 13 12 11 12 13 15 16 17 18 19 20 20 21 23 25 28 29 30 31 32 32 32 32 32 32 32 32 32 32 32 31 30 30 29 28 27 26 24 22 22 21 20 19
-0 1 1 1 2 2 4 6 7 7 6 5 4 4 3 3 2 2 2 3 4 4 5 5 5 5 9 9 9 8 8 8 9 10 11 11 11 11 11 11 11 11 10 10 11 12 13 14 15 16 17 18 19 20 21 21 22 24 27 29 30 31 31 31 32 32 32 32 32 32 32 32 32 31 31 30 29 28 27 26 24 24 22 21 20
-2 -1 1 4 4 3 2 2 3 3 4 4 5 6 6 5 4 3 3 3 3 4 5 8 7 7 7 8 9 8 9 9 10 11 11 11 11 11 11 10 10 9 10 10 11 12 12 13 14 15 17 18 19 19 20 22 23 24 25 27 28 29 29 30 30 31 31 32 32 32 32 32 32 32 31 31 30 29 28 26 25 24 23 22 20
0 2 4 4 3 2 2 2 2 2 2 4 5 7 8 8 7 7 7 7 6 6 6 6 7 7 7 7 9 10 9 9 11 11 11 10 11 10 10 9 9 9 10 10 11 12 12 13 14 15 16 18 18 19 20 21 22 24 25 26 26 27 28 28 29 30 30 31 31 31 32 32 32 32 32 31 31 30 28 26 26 26 25 23 21
1 -0 0 1 1 2 1 1 -1 2 6 6 7 6 8 8 8 9 10 9 7 5 5 6 6 7 9 10 11 10 10 11 11 10 10 9 9 9 9 9 9 9 10 10 11 12 13 14 15 16 18 18 18 18 20 21 22 23 23 24 25 26 27 28 28 28 28 29 30 31 31 31 31 32 32 32 31 31 30 29 27 26 25 24 22
-3 -2 0 2 3 2 2 4 9 10 10 10 9 9 9 10 10 11 11 8 5 5 6 7 8 10 12 13 13 12 12 11 10 10 9 7 8 8 9 9 8 8 9 10 11 12 13 14 15 16 16 17 17 18 20 22 23 24 23 23 24 24 25 25 26 27 27 27 28 29 30 30 31 31 31 31 31 31 31 30 29 28 27 25 23
-2 1 3 3 4 6 8 10 10 9 8 8 9 9 9 10 10 10 9 7 6 6 7 9 10 10 11 11 12 12 12 11 10 9 8 7 7 7 8 8 8 7 8 9 11 12 12 13 14 15 16 16 16 18 21 22 23 24 23 23 23 23 24 24 24 25 26 27 27 28 28 29 30 30 30 31 31 31 31 30 30 29 28 27 26
0 4 5 6 8 9 8 6 5 6 6 7 8 7 8 8 8 8 8 7 8 9 10 10 9 10 10 9 9 11 11 11 11 10 9 8 6 7 7 7 7 7 8 9 11 11 12 13 13 15 16 17 17 18 20 21 22 23 23 23 22 23 24 23 24 24 24 25 26 26 27 28 28 29 29 30 30 30 30 30 30 29 28 28 27
5 6 6 8 8 5 3 2 2 2 3 3 5 6 7 8 8 9 9 10 11 11 10 9 9 7 7 6 9 12 13 13 12 10 10 7 6 7 7 7 7 7 8 9 10 10 11 12 13 14 16 17 17 17 20 21 21 22 22 22 22 22 23 24 24 25 25 25 25 25 26 26 26 27 27 28 29 29 29 29 29 29 28 27 27
6 6 7 7 6 3 2 2 3 4 6 6 5 7 9 8 10 10 11 12 11 10 8 7 6 5 5 5 7 12 13 13 12 11 10 7 7 7 7 7 7 7 8 8 9 9 10 11 13 14 15 15 15 17 19 20 21 21 22 21 21 22 22 23 24 25 25 25 25 25 25 25 25 25 25 26 26 27 27 27 28 27 27 27 26
6 6 6 6 5 5 3 2 5 6 4 3 3 3 5 7 8 9 9 10 9 7 6 5 5 4 5 6 11 13 12 10 8 9 9 8 8 8 7 8 8 7 8 9 9 10 10 11 13 14 15 15 15 18 19 19 20 21 21 19 20 21 21 22 23 24 24 24 25 25 24 24 24 24 24 26 26 26 25 25 25 26 26 26 26
6 5 4 4 4 4 2 3 4 5 3 3 3 4 6 7 6 6 6 6 5 4 5 4 4 5 9 12 11 9 8 8 8 8 9 8 8 7 7 7 7 7 7 8 8 9 10 11 12 13 14 15 15 16 17 18 19 20 19 19 20 20 20 21 22 23 24 24 24 24 23 23 23 23 24 25 26 25 24 23 23 24 24 24 23
5 4 4 4 3 4 4 3 3 3 2 4 6 6 6 5 4 5 5 5 4 3 3 6 9 9 8 9 9 8 8 8 9 9 9 8 8 8 7 7 6 7 7 7 8 9 10 11 12 13 15 15 14 15 17 18 19 19 19 18 18 18 19 20 21 22 22 21 21 23 22 21 22 22 23 25 26 25 22 22 22 22 21 21 21
5 4 3 3 3 4 5 5 4 3 4 6 7 5 5 5 5 5 4 4 3 5 8 7 6 7 9 9 9 9 9 9 9 9 8 8 7 7 7 7 7 7 7 8 8 8 9 11 12 13 14 12 13 14 15 17 17 18 18 17 17 18 18 19 19 19 17 17 16 19 21 21 20 20 23 24 25 24 22 21 21 20 19 19 19
5 4 4 4 5 6 7 6 4 5 7 6 5 4 5 4 4 4 3 4 5 7 7 6 7 7 8 9 9 9 8 7 7 6 7 7 7 6 6 6 6 6 7 7 7 8 9 10 11 11 11 11 12 12 12 16 17 18 18 17 18 18 18 18 18 17 15 13 12 13 17 20 21 22 22 23 24 25 22 20 20 19 18 17 18
3 3 8 5 6 7 5 4 6 6 5 4 4 4 4 4 3 3 3 5 6 6 6 7 7 8 9 8 7 6 7 7 7 7 7 7 6 6 6 5 5 6 6 6 7 8 9 9 9 10 11 12 12 11 11 15 16 17 18 17 17 18 18 17 16 16 15 13 12 12 13 17 19 21 21 22 23 24 24 19 19 18 18 18 18
2 4 5 6 6 4 5 5 5 4 3 3 4 4 3 3 3 3 4 6 6 6 7 8 8 6 6 6 6 7 7 7 7 7 5 5 5 5 5 5 5 5 5 6 6 7 8 8 9 10 10 10 11 12 9 12 15 16 17 18 17 18 19 17 15 15 14 13 12 12 13 16 18 20 21 22 22 23 24 18 18 20 20 20 16
-0 3 6 6 5 5 4 4 3 2 2 4 4 2 2 3 3 3 5 6 7 8 7 5 4 4 4 4 5 5 5 5 5 5 4 4 4 4 4 4 4 5 5 5 6 7 8 8 9 9 9 10 9 9 10 10 12 15 16 16 17 18 19 18 15 14 13 13 13 13 14 15 18 20 21 21 21 22 23 19 21 21 20 19 16
4 5 4 6 4 3 2 2 1 3 4 4 3 2 3 3 3 5 6 7 8 5 4 3 2 2 3 3 3 4 4 4 4 4 3 3 2 3 3 4 4 4 5 5 6 7 7 7 7 7 8 8 8 7 10 9 9 12 14 16 16 17 18 17 16 14 14 14 13 12 14 16 18 20 21 21 21 20 21 21 21 21 19 17 14
3 3 4 4 3 2 1 1 2 3 3 2 3 3 3 3 4 5 6 7 4 3 2 1 1 1 1 1 2 2 2 3 3 4 3 3 2 3 2 3 4 4 4 4 4 6 6 6 6 6 6 7 6 4 1 6 8 9 12 14 15 16 16 18 15 13 14 13 14 16 16 17 19 20 21 20 20 20 22 21 19 19 17 13 12
3 3 3 2 2 1 1 2 2 1 1 2 3 3 3 3 5 7 6 4 3 1 1 1 0 -0 -0 0 1 1 1 2 2 2 2 2 2 3 2 3 3 3 3 3 4 5 5 5 5 5 5 6 4 0 0 -1 8 7 9 11 13 14 15 17 17 14 15 15 16 17 17 17 18 19 19 18 18 19 21 19 19 18 13 12 11
2 1 2 1 1 1 2 2 -1 -1 0 1 2 3 3 5 5 4 4 4 2 2 1 -0 -1 -1 -1 -0 0 0 0 0 0 1 1 1 1 1 1 2 2 2 2 3 2 2 3 3 4 4 4 4 2 1 2 0 0 1 4 6 8 9 12 14 16 15 15 14 15 16 16 16 18 18 19 19 19 20 20 18 18 16 13 12 11
1 -0 1 1 1 1 1 -0 -1 -1 -0 1 2 2 4 5 3 3 3 3 2 1 -0 -1 -2 -2 -1 -1 -1 -0 -1 -2 -2 -1 -0 -0 0 1 1 0 1 1 1 1 2 2 2 2 2 1 1 1 -0 -1 -0 -1 1 1 2 2 2 5 8 11 11 9 8 11 12 16 15 15 16 16 17 17 16 16 17 17 17 15 13 12 12
-1 -0 2 1 1 1 0 -1 -1 -0 0 1 1 2 4 3 3 2 2 1 1 1 -0 -2 -2 -2 -2 -1 -1 -2 -2 -2 -2 -1 -1 -0 -0 -0 0 1 1 2 2 2 3 3 3 3 3 2 0 -2 -3 -3 -2 7 8 8 7 2 -0 0 3 7 11 13 7 9 10 11 11 13 14 13 13 13 13 14 14 15 15 15 13 12 12
-1 1 0 0 0 0 -1 -1 -1 -0 0 1 1 2 3 3 2 2 1 -1 -2 -1 -2 -3 -3 -3 -3 -2 -2 -2 -2 -2 -2 -2 -2 -1 1 1 1 0 1 4 5 6 7 5 6 6 5 5 5 3 2 1 7 9 9 9 9 9 8 7 8 7 11 12 12 7 7 8 10 10 11 12 11 11 11 12 12 12 12 14 13 13 12
-0 0 -1 -1 -1 -1 -1 -1 -1 0 0 1 1 2 3 2 2 2 0 -1 -2 -4 -4 -4 -3 -4 -3 -3 -3 -3 -3 -3 -3 -2 -2 -2 -3 -1 2 3 2 3 3 6 8 10 10 8 7 8 9 9 8 9 10 9 10 9 9 9 9 7 7 7 9 10 7 6 6 6 7 7 7 9 9 9 9 9 9 10 10 10 11 11 11